Flight Track Log - Related Links

Times and Time Zones

All times are in EDT time to prevent confusion due to time zone crossing. See the SWA253 flight status page for this flight to view local times or setup timezone preferences in your user account.

Time Position Orientation Groundspeed Altitude Reporting Facility
EDT Latitude Longitude Course Direction KTS MPH feet Rate Location/Type
Fri 22:46:39 37.7167 -122.2333 308° West 147 169 1,000  Level Northern Cal TRACON
Fri 22:47:24 37.7417 -122.2736 308° West 181 208 2,900 3,453 Climbing Oakland Center
Fri 22:48:25 37.7722 -122.3317 304° West 212 244 7,100 3,443 Climbing Oakland Center
Fri 22:49:26 37.7178 -122.3778 214° Southwest 259 298 9,900 3,000 Climbing Oakland Center
Fri 22:50:27 37.6397 -122.3933 189° South 281 323 13,200 3,197 Climbing Oakland Center
Fri 22:51:28 37.5536 -122.3353 152° Southeast 367 422 16,400 2,754 Climbing Oakland Center
Fri 22:52:29 37.4753 -122.2469 138° Southeast 380 437 18,800 2,016 Climbing Oakland Center
Fri 22:53:30 37.3897 -122.1564 140° Southeast 399 459 20,500 2,262 Climbing Oakland Center
Fri 22:54:31 37.2986 -122.0628 141° Southeast 420 483 23,400 2,780 Climbing Oakland Center
Fri 22:55:33 37.1861 -121.9478 141° Southeast 435 501 26,200 2,341 Climbing Oakland Center
Fri 22:56:34 37.0872 -121.8436 140° Southeast 460 529 28,200 2,213 Climbing Oakland Center
Fri 22:57:35 36.9819 -121.7433 143° Southeast 475 547 30,700 1,328 Climbing Oakland Center
Fri 22:58:36 36.8808 -121.6392 140° Southeast 471 542 30,900 98 Climbing Oakland Center
Fri 22:59:37 36.7750 -121.5308 141° Southeast 470 541 30,900  Level Oakland Center
Fri 23:00:38 36.6736 -121.4289 141° Southeast 471 542 30,900  Level Oakland Center
Fri 23:01:39 36.5694 -121.3242 141° Southeast 482 555 30,900  Level Oakland Center
Fri 23:02:40 36.4647 -121.2167 140° Southeast 490 564 30,900  Level Oakland Center
Fri 23:03:41 36.3575 -121.1106 141° Southeast 493 567 30,900  Level Oakland Center
Fri 23:04:43 36.2514 -121.0050 141° Southeast 492 566 30,900  Level Oakland Center
Fri 23:05:44 36.1453 -120.8986 141° Southeast 490 564 30,900  Level Oakland Center
Fri 23:06:45 36.0394 -120.7908 141° Southeast 493 567 30,900  Level Oakland Center
Fri 23:07:46 35.9333 -120.6856 141° Southeast 491 565 30,900  Level Oakland Center
Fri 23:08:47 35.8258 -120.5800 141° Southeast 495 570 30,900  Level Oakland Center
Fri 23:09:48 35.7189 -120.4742 141° Southeast 494 568 30,900  Level Oakland Center
Fri 23:10:49 35.5881 -120.3467 142° Southeast 497 572 30,900  Level Oakland Center
Fri 23:11:50 35.5003 -120.2608 141° Southeast 495 570 30,900  Level Oakland Center
Fri 23:12:51 35.3903 -120.1508 141° Southeast 499 574 30,900  Level Oakland Center
Fri 23:13:52 35.2800 -120.0450 142° Southeast 497 572 30,900 -836 Level Oakland Center
Fri 23:14:53 35.1514 -119.9214 142° Southeast 490 564 29,200 -2,066 Descending Oakland Center
Fri 23:15:54 35.0539 -119.8139 138° Southeast 474 545 26,700 -2,390 Descending Oakland Center
Fri 23:16:56 34.9681 -119.6967 132° Southeast 464 534 24,300 -1,854 Descending Oakland Center
Fri 23:17:57 34.8864 -119.5847 132° Southeast 448 516 22,900 -2,262 Descending Oakland Center
Fri 23:18:58 34.8033 -119.4739 132° Southeast 443 510 19,700 -2,731 Descending Oakland Center
Fri 23:20:11 34.7058 -119.3417 132° Southeast 438 504 16,800 -2,178 Descending Los Angeles Center
Fri 23:21:13 34.6292 -119.2389 132° Southeast 416 479 14,800 -1,854 Descending Los Angeles Center
Fri 23:22:14 34.5569 -119.1469 134° Southeast 391 450 13,000 -1,854 Descending Los Angeles Center
Fri 23:23:16 34.4744 -119.0358 132° Southeast 363 418 11,000 -1,452 Descending Los Angeles Center
Fri 23:24:18 34.4147 -118.9539 131° Southeast 324 373 10,000 -1,452 Descending Los Angeles Center
Fri 23:25:20 34.3636 -118.8669 125° Southeast 317 365 8,000 -1,805 Descending Los Angeles Center
Fri 23:26:21 34.3108 -118.7881 129° Southeast 300 345 6,300 -1,463 Descending Los Angeles Center
Fri 23:27:23 34.2636 -118.7117 127° Southeast 288 331 5,000 -1,016 Descending Los Angeles Center
Fri 23:28:25 34.2181 -118.6392 127° Southeast 275 316 4,200 -576 Descending Los Angeles Center
Fri 23:29:28 34.2000 -118.5500 104° East 199 229 3,800 -634 Descending Southern California TRACON
Fri 23:30:28 34.2000 -118.5000 90° East 163 188 2,900 -850 Descending Southern California TRACON
Fri 23:31:28 34.2000 -118.4500 90° East 151 174 2,100 -800 Descending Southern California TRACON
Fri 23:32:28 34.2000 -118.4000 90° East 127 146 1,300 -475 Descending Southern California TRACON
Fri 23:33:47 34.1983 -118.3517 92° East 142 163 1,000 -228 Descending Los Angeles Center
Fri 23:35:00 34.2000 -118.3500 140° Southeast  Level FlightAware Approximate

Login

Don't have an account? Register now (free) for customized features, flight alerts, and more!